Bookmark and Share
Track history (hours):
 

Fernando Pessoa

Last reported at 2014-Apr-17 18:34 UTC. Time now 2014-Apr-17 18:40 UTC.
Position N 38°39' W 009°05'.

Length 49 m.

MMSI: 263701470.

NotesDate/timePositionNaut miles runAvg speedWind from/ knotsBaromVisibWave heightAir tempDewpointWater temp
2014-Apr-17 18:34N 38°39' W 009°05'1 1.0
2014-Apr-17 17:34N 38°39' W 009°06'3 3.0
2014-Apr-17 16:34N 38°42' W 009°08'4 3.7
2014-Apr-17 15:33N 38°39' W 009°05'0 0.0
2014-Apr-17 12:28N 38°39' W 009°05'1 1.6
2014-Apr-17 11:33N 38°40' W 009°07'0 0.4
2014-Apr-17 10:33N 38°40' W 009°06'1 1.2
2014-Apr-17 09:33N 38°39' W 009°05'0 0.0
2014-Apr-17 08:33N 38°39' W 009°05'0 0.0
2014-Apr-17 07:33N 38°39' W 009°05'1 0.8
2014-Apr-17 06:33N 38°39' W 009°06'1 0.7
2014-Apr-17 05:33N 38°39' W 009°05'0 0.0
2014-Apr-16 20:34N 38°39' W 009°05'0 0.0
2014-Apr-16 19:33N 38°39' W 009°05'4 3.8
2014-Apr-16 18:33N 38°42' W 009°08'2 1.9
2014-Apr-16 17:34N 38°40' W 009°07'2 2.2
2014-Apr-16 16:33N 38°39' W 009°05'0 0.1
2014-Apr-16 15:34N 38°39' W 009°05'0 0.1
2014-Apr-16 14:33N 38°39' W 009°05'0 0.0
2014-Apr-16 12:28N 38°39' W 009°05'1 1.1
2014-Apr-16 11:34N 38°40' W 009°06'0 0.3
2014-Apr-16 10:34N 38°40' W 009°06'1 1.3
2014-Apr-16 09:33N 38°39' W 009°05'0 0.0
2014-Apr-16 08:34N 38°39' W 009°05'0 0.0
2014-Apr-16 07:33N 38°39' W 009°05'1 1.2
2014-Apr-16 06:34N 38°40' W 009°06'1 1.1
2014-Apr-16 05:34N 38°39' W 009°05'0 0.0
2014-Apr-16 04:34N 38°39' W 009°05'0 0.0
2014-Apr-16 03:34N 38°39' W 009°05'0 0.0
2014-Apr-16 02:34N 38°39' W 009°05'0 0.0
2014-Apr-16 01:34N 38°39' W 009°05'0 0.0
2014-Apr-16 00:34N 38°39' W 009°05'0 0.0
2014-Apr-15 23:34N 38°39' W 009°05'0 0.0
2014-Apr-15 22:34N 38°39' W 009°05'0 0.0
2014-Apr-15 21:34N 38°39' W 009°05'0 0.1
2014-Apr-15 20:34N 38°39' W 009°05'0 0.0
2014-Apr-15 19:33N 38°39' W 009°05'4 3.7
2014-Apr-15 18:33N 38°42' W 009°08'2 1.8
2014-Apr-15 17:34N 38°40' W 009°07'2 2.2
2014-Apr-15 16:33N 38°39' W 009°05'0 0.2
2014-Apr-15 15:33N 38°39' W 009°05'0 0.1
2014-Apr-15 14:32N 38°39' W 009°05'0 0.0
2014-Apr-15 11:34N 38°39' W 009°05'0 0.0
2014-Apr-15 09:29N 38°39' W 009°05'1 0.8
2014-Apr-15 08:33N 38°39' W 009°06'0 0.1
2014-Apr-15 07:34N 38°39' W 009°06'3 2.9
2014-Apr-15 06:34N 38°42' W 009°08'0 0.4
2014-Apr-15 05:34N 38°42' W 009°08'1 0.1
2014-Apr-14 18:34N 38°41' W 009°08'3 2.7
2014-Apr-14 17:34N 38°39' W 009°06'3 3.3
2014-Apr-14 16:34N 38°42' W 009°08'0 0.2
2014-Apr-14 15:34N 38°42' W 009°08'1 0.8
2014-Apr-14 14:34N 38°41' W 009°08'3 3.4
2014-Apr-14 13:34N 38°39' W 009°05'2 0.8
2014-Apr-14 11:34N 38°40' W 009°06'1 1.5
2014-Apr-14 10:34N 38°39' W 009°05'3 1.3
2014-Apr-14 08:33N 38°41' W 009°08'3 2.7
2014-Apr-14 07:33N 38°39' W 009°05'1 0.7
2014-Apr-14 06:34N 38°39' W 009°06'3 3.3
2014-Apr-14 05:33N 38°42' W 009°08'4 0.5
2014-Apr-13 22:33N 38°39' W 009°05'1 1.1
2014-Apr-13 21:33N 38°40' W 009°06'0 0.2
2014-Apr-13 20:34N 38°40' W 009°06'0 0.1
2014-Apr-13 19:34N 38°40' W 009°06'1 1.3
2014-Apr-13 18:33N 38°40' W 009°08'0 0.4
2014-Apr-13 17:34N 38°41' W 009°08'0 0.1
2014-Apr-13 16:33N 38°41' W 009°08'0 0.1
2014-Apr-13 15:33N 38°41' W 009°08'1 0.5
2014-Apr-13 14:33N 38°41' W 009°08'3 3.2
2014-Apr-13 13:33N 38°39' W 009°05'0 0.0
2014-Apr-13 12:33N 38°39' W 009°05'2 1.6
2014-Apr-13 11:33N 38°40' W 009°07'0 0.3
2014-Apr-13 10:34N 38°40' W 009°06'1 1.2
2014-Apr-13 09:34N 38°39' W 009°05'4 0.1
2014-Apr-11 19:33N 38°42' W 009°08'1 0.5
2014-Apr-11 18:33N 38°42' W 009°08'1 0.9
2014-Apr-11 17:34N 38°41' W 009°08'3 3.3
2014-Apr-11 16:34N 38°39' W 009°05'4 4.0
2014-Apr-11 15:33N 38°42' W 009°08'1 1.4
2014-Apr-11 14:34N 38°41' W 009°08'0 0.1
2014-Apr-11 13:34N 38°41' W 009°08'0 0.2
2014-Apr-11 12:33N 38°41' W 009°08'0 0.1
2014-Apr-11 11:33N 38°41' W 009°08'0 0.1
2014-Apr-11 10:34N 38°41' W 009°08'3 2.7
2014-Apr-11 09:33N 38°39' W 009°05'2 1.6
2014-Apr-11 08:33N 38°40' W 009°07'3 2.8
2014-Apr-11 07:33N 38°42' W 009°08'1 1.1
2014-Apr-11 06:34N 38°41' W 009°08'3 3.1
2014-Apr-11 05:34N 38°39' W 009°05'0 0.0
2014-Apr-10 20:23N 38°39' W 009°05'3 3.9
2014-Apr-10 19:34N 38°42' W 009°08'3 2.8
2014-Apr-10 18:34N 38°39' W 009°06'3 3.4
2014-Apr-10 17:34N 38°42' W 009°08'0 0.1
2014-Apr-10 16:33N 38°42' W 009°08'1 0.8
2014-Apr-10 15:34N 38°41' W 009°08'3 3.4
2014-Apr-10 14:34N 38°39' W 009°05'1 1.5
2014-Apr-10 13:33N 38°40' W 009°06'0 0.0
2014-Apr-10 12:33N 38°40' W 009°06'1 1.4
2014-Apr-10 11:33N 38°39' W 009°05'0 0.0
2014-Apr-10 10:33N 38°39' W 009°05'3 2.7
2014-Apr-10 09:33N 38°41' W 009°08'3 2.8
2014-Apr-10 08:33N 38°39' W 009°05'1 1.1
2014-Apr-10 07:34N 38°40' W 009°06'3 2.7
2014-Apr-10 06:34N 38°42' W 009°08'1 0.6
2014-Apr-10 05:33N 38°42' W 009°08'0 0.0
2014-Apr-10 04:34N 38°42' W 009°08'4 4.1
2014-Apr-10 03:34N 38°39' W 009°05'0 0.0
2014-Apr-10 02:33N 38°39' W 009°05'0 0.0
2014-Apr-10 01:33N 38°39' W 009°05'0 0.3
2014-Apr-10 00:33N 38°39' W 009°05'0 0.2
2014-Apr-09 23:33N 38°39' W 009°05'0 0.0
2014-Apr-09 22:34N 38°39' W 009°05'1 1.0
2014-Apr-09 21:34N 38°40' W 009°06'0 0.0
2014-Apr-09 20:34N 38°40' W 009°06'1 1.5
2014-Apr-09 19:34N 38°39' W 009°05'0 0.0
2014-Apr-09 18:34N 38°39' W 009°05'1 1.2
2014-Apr-09 17:34N 38°40' W 009°06'3 2.9
2014-Apr-09 16:33N 38°42' W 009°08'4 3.8
2014-Apr-09 15:34N 38°39' W 009°05'  

Dump ship's entire track history

sailing weather and tide predictions

Fernando Pessoa — CSKQ — position and weather